Torna al catalogo

CZ-6A DEB

AttivoPO
NORAD 60636·DEBRIS·🇨🇳 China

Lanciato Aug 6, 2024 da Taiyuan Satellite Launch Center

Loading…

Prossimi Passaggi (prossime 24 ore)

TLE

AggiornatoSource: Space-Track

Epoca: Sep 14, 2026, 11:31 UTC

1 60636U 24140AM  26257.47998357  .00000441  00000-0  20192-3 0  9992
2 60636  88.9904 264.3014 0047319 256.1390 103.4533 14.19225519108772

Traccia CZ-6A DEB in tempo reale con AllMySat

Download on the App Store